Dewpoint
44 44 46 47 45 45 46 47 47 45 46 45 43 44 43 42 43 43 43 44 44 45 45 45 44 43 45 45 44 47 47 46 52 51 51 49 48 45 42 40 39 38 38 38 38 38 38
47 45 46 45 46 43 46 46 45 45 45 45 44 45 44 44 43 43 43 43 44 44 44 44 44 45 44 39 47 50 46 48 50 50 51 49 47 45 42 41 38 39 38 37 38 37 37
45 46 43 44 43 43 46 44 44 45 44 41 41 44 45 44 43 42 43 43 43 44 44 44 44 46 43 42 46 51 46 50 50 51 51 50 46 43 41 38 39 39 37 37 37 37 36
45 44 43 44 44 43 43 45 44 44 41 40 41 44 45 41 41 41 43 44 43 44 44 44 44 44 38 46 50 49 49 50 50 54 53 52 47 43 40 39 38 36 35 32 34 36 36
44 44 42 43 42 43 42 45 44 40 43 45 45 45 43 40 42 42 44 44 45 45 45 44 41 40 36 49 46 47 50 47 50 53 53 52 47 44 41 37 35 35 30 32 32 36 35
44 43 42 44 43 41 41 45 41 42 44 44 46 47 46 44 42 43 45 45 44 43 43 44 41 36 39 41 45 44 46 49 50 51 47 46 44 41 40 35 28 31 30 32 29 31 35
44 43 42 43 43 41 42 44 42 44 44 45 46 46 46 47 43 43 44 40 32 33 38 30 32 32 40 45 46 44 45 51 46 45 41 43 38 34 38 36 32 33 31 31 32 31 30
43 43 43 41 43 41 42 43 41 44 44 46 46 47 47 46 45 44 44 35 34 37 29 36 36 35 37 40 41 42 46 46 46 40 43 41 35 37 39 37 33 33 31 31 32 30 29
43 42 43 42 41 39 42 40 42 44 45 47 46 46 46 46 45 43 40 38 41 39 29 33 37 38 38 44 41 40 44 46 42 38 35 37 38 39 38 37 35 34 32 32 31 29 27
44 42 42 41 41 40 40 41 43 44 46 47 47 47 46 46 41 42 38 42 42 39 20 26 33 39 41 43 40 42 43 43 41 36 36 35 43 39 38 36 37 34 32 31 28 28 25
43 42 42 42 40 40 41 43 42 45 46 47 46 46 45 45 41 39 43 43 41 37 10 27 36 44 44 40 39 40 45 42 39 37 38 35 39 39 37 37 38 34 30 28 27 26 25
43 43 42 41 41 40 40 40 42 45 46 47 48 46 46 44 42 43 43 40 36 21 16 31 37 38 38 38 40 42 42 41 40 37 37 36 36 38 38 36 38 30 27 26 25 24 23
42 42 42 42 41 40 40 40 41 45 45 47 48 46 44 44 40 43 41 35 21 19 29 30 32 36 36 36 37 38 38 37 35 31 31 35 35 32 38 35 32 29 31 23 14 17 18
42 42 42 42 41 40 40 40 41 44 45 46 47 44 44 44 44 45 40 28 20 28 28 36 37 36 34 36 36 37 36 34 32 34 31 29 27 33 31 32 34 27 27 21 11 6 12
42 43 42 41 41 40 40 40 41 43 45 47 44 41 42 42 45 45 36 27 26 28 33 35 33 31 33 35 35 36 33 32 31 31 28 27 28 31 31 31 30 28 26 23 20 19 16
42 42 42 41 41 40 40 40 40 42 45 46 38 36 38 43 45 40 33 31 34 35 34 31 29 30 28 32 33 33 33 32 30 30 29 28 27 30 30 30 29 27 27 23 20 9 5
42 42 43 41 41 41 40 40 40 42 44 44 36 32 36 43 41 35 30 32 34 37 34 29 29 30 30 30 32 31 28 32 31 30 29 28 28 29 30 28 27 26 25 23 21 17 3
42 41 42 41 41 41 40 39 40 41 44 41 34 30 38 42 33 35 34 35 37 35 34 30 29 29 29 29 28 28 26 30 31 30 27 28 28 27 27 28 29 28 26 22 16 16 20
41 41 42 41 41 40 40 39 39 40 43 40 33 32 36 38 28 30 33 33 36 32 30 28 27 28 29 27 26 27 27 30 31 29 27 27 24 23 25 26 28 27 27 24 21 21 18
41 41 42 41 40 41 40 39 39 39 42 37 33 24 31 35 35 33 32 32 30 34 30 29 28 28 27 26 28 27 27 32 31 31 32 27 23 19 13 19 26 25 27 24 24 21 19
41 41 41 44 40 40 40 39 38 39 41 37 34 32 34 30 31 33 32 32 31 30 32 30 27 26 27 26 28 27 30 32 33 35 30 27 24 25 24 25 26 25 26 26 24 24 20
41 41 40 43 40 40 40 39 38 38 40 37 33 32 35 33 33 31 31 31 32 33 34 29 27 31 30 26 25 27 29 29 29 31 29 28 27 27 24 27 27 26 27 27 26 26 25
41 40 40 41 40 40 39 39 37 37 37 38 39 39 36 32 31 30 30 31 32 33 35 36 34 32 32 34 36 33 30 30 30 29 28 27 27 23 20 24 26 23 27 27 27 28 26
41 40 40 40 42 40 39 39 37 37 36 38 39 38 34 30 31 31 32 34 34 34 32 36 36 33 37 37 34 32 31 30 30 30 29 27 26 23 21 23 17 20 29 29 27 27 29
41 40 39 40 42 41 39 38 39 37 37 34 39 37 35 29 31 31 33 35 34 34 35 35 38 39 39 36 31 29 30 29 31 32 30 29 28 24 21 22 21 28 30 28 27 31 30
41 40 40 39 40 42 39 38 38 38 38 33 36 37 37 32 29 33 32 34 32 31 33 37 41 40 37 34 31 27 25 26 28 31 34 31 29 25 24 20 19 26 33 34 35 32 35
41 41 40 40 39 39 41 39 38 38 38 33 32 36 33 30 31 33 33 34 37 32 31 36 38 37 35 32 30 28 26 29 27 27 28 31 30 26 24 21 24 27 34 37 30 31 34
42 41 40 41 40 40 40 42 39 37 37 35 32 35 29 28 28 32 35 35 37 36 31 35 35 34 33 30 29 28 27 30 29 30 28 28 27 26 26 23 19 33 36 32 37 35 35
43 41 42 40 41 39 39 41 44 37 36 37 33 34 37 30 26 31 28 29 32 32 34 38 33 33 33 30 30 29 29 30 29 27 32 28 27 26 25 25 28 36 39 39 37 35 35
Wind_Speed
20 20 22 23 24 26 27 27 25 24 23 24 23 23 20 18 18 19 17 17 15 13 13 13 15 10 9 9 10 3 12 7 29 23 21 19 17 14 17 10 8 6 3 7 3 5 4
20 22 23 25 24 26 27 26 25 24 24 25 25 23 21 19 18 16 16 16 13 14 13 13 13 9 7 15 3 2 13 4 26 24 22 15 15 9 12 10 10 10 7 5 5 7 2
20 21 23 25 26 27 28 25 25 25 25 27 24 24 19 18 17 15 15 14 15 12 11 13 10 3 8 10 1 4 6 5 24 23 22 9 19 12 11 7 6 8 8 11 12 5 4
20 21 22 24 26 26 27 27 25 26 29 27 25 22 19 18 15 14 14 12 12 13 11 7 6 4 6 4 3 3 4 4 18 18 18 11 11 7 4 8 5 9 3 7 4 12 9
21 21 24 25 28 25 27 27 27 29 28 29 27 24 21 15 14 12 12 13 14 16 9 3 1 4 4 2 9 7 6 3 18 13 11 11 9 5 4 12 8 7 6 10 3 9 4
21 23 24 26 29 30 27 26 28 30 30 30 29 26 19 16 12 11 11 16 13 5 2 3 1 3 3 5 5 5 5 9 12 17 16 13 6 9 6 13 16 13 7 6 12 3 4
21 22 23 26 26 28 27 27 27 30 32 32 31 27 23 17 11 8 7 3 3 2 3 2 4 4 8 4 5 2 2 9 16 19 10 15 9 24 18 9 6 15 9 6 4 1 2
20 21 23 24 26 26 27 27 29 32 31 33 31 27 24 18 9 3 2 2 2 1 4 2 4 8 8 8 6 2 4 8 13 20 9 11 17 13 16 11 10 12 9 6 1 3 1
18 21 23 25 27 27 27 28 30 31 30 33 31 29 23 9 7 4 3 2 1 5 4 6 4 3 5 4 5 7 8 7 12 15 9 9 10 22 19 11 12 5 9 6 3 2 2
18 20 22 24 27 28 27 28 29 30 30 30 29 26 21 12 7 2 2 3 5 3 5 6 2 1 2 9 2 3 2 7 4 22 19 5 4 19 19 17 11 8 3 7 6 2 3
18 20 22 24 25 26 27 28 29 30 29 27 25 24 14 16 3 4 4 6 6 3 7 2 3 4 5 2 9 4 5 6 6 9 5 3 12 12 15 7 7 3 6 8 6 5 2
17 20 21 23 26 27 29 28 30 29 27 25 19 20 12 8 6 5 2 2 3 2 8 3 2 2 6 7 4 4 5 5 5 13 19 6 4 4 3 10 9 9 7 9 6 3 3
17 19 20 22 25 27 28 28 29 29 26 25 15 10 6 3 2 4 6 5 3 10 1 4 3 4 8 6 7 5 1 4 5 7 5 5 6 3 7 11 9 4 5 3 1 2 4
16 19 20 22 25 27 28 28 29 28 28 26 15 3 4 3 6 3 3 2 15 4 5 1 4 12 8 4 6 4 2 5 6 8 6 4 6 1 2 3 8 4 1 3 4 4 2
15 18 19 22 24 27 28 28 29 29 28 24 10 2 3 2 2 1 1 11 1 2 2 7 12 10 4 9 7 2 3 2 2 2 4 6 4 3 6 3 3 5 3 2 7 2 2
15 16 18 21 23 26 29 29 30 31 29 18 3 2 3 3 2 3 1 8 2 3 2 4 5 1 6 3 5 2 2 1 4 2 2 3 8 4 5 3 12 2 9 3 1 5 5
13 15 17 19 22 24 27 30 30 32 33 10 3 3 1 10 3 9 8 6 4 3 1 2 4 5 5 6 6 2 1 1 2 3 5 6 5 1 5 2 8 4 2 4 5 1 3
13 15 17 18 21 24 26 29 31 32 31 8 3 4 5 3 7 4 5 4 4 4 2 2 5 6 6 5 4 3 4 3 4 6 5 2 6 5 2 2 1 3 6 6 4 5 1
11 13 16 17 20 22 25 28 30 31 26 6 4 4 3 4 4 5 4 2 2 6 5 3 2 1 3 5 5 4 3 2 5 3 7 8 3 6 1 1 1 5 5 4 7 4 7
10 13 15 15 19 21 23 27 29 30 26 2 2 1 5 7 3 2 3 5 2 4 3 4 3 3 5 4 6 5 4 2 3 3 6 6 4 3 5 3 4 5 9 13 7 6 4
10 12 13 14 16 20 21 24 28 31 25 2 5 3 1 2 4 6 1 0 2 3 4 4 3 2 4 4 3 4 3 5 3 8 3 3 3 2 2 2 5 4 8 17 19 10 10
9 11 13 15 14 17 19 21 25 30 20 5 4 2 2 2 3 3 3 2 1 0 1 2 6 2 5 4 5 9 8 4 5 2 3 2 4 2 1 0 7 10 13 14 19 12 18
8 10 12 14 12 15 17 18 21 24 15 6 5 2 1 3 3 1 2 2 2 2 2 4 4 5 5 1 2 2 2 6 9 10 5 6 7 3 3 2 4 10 16 21 11 10 16
7 9 11 11 11 12 15 15 16 17 12 2 3 4 3 3 3 1 3 3 3 3 1 2 3 3 4 6 8 11 12 11 8 5 6 9 7 2 2 1 4 1 3 9 22 8 19
7 9 10 12 12 9 11 13 13 13 10 5 3 4 4 4 3 6 4 5 3 2 1 1 2 2 5 3 4 4 2 2 3 3 4 4 6 2 1 3 9 1 4 7 7 4 16
8 8 9 11 11 10 8 9 12 11 6 5 3 3 2 4 3 3 4 4 2 2 1 1 1 1 3 3 3 3 5 5 5 3 4 5 6 4 3 3 4 3 3 5 4 3 1
9 7 8 10 10 11 9 8 8 10 5 2 0 2 1 3 3 3 4 4 4 2 2 2 4 3 2 4 4 5 4 3 6 8 7 6 3 11 7 4 9 10 6 2 2 3 6
10 8 10 11 11 11 12 9 10 8 7 1 2 2 1 3 9 4 3 5 5 2 3 1 5 2 3 6 6 5 6 7 5 5 7 11 10 6 7 5 9 7 7 7 3 2 5
12 8 11 11 9 11 12 12 11 9 7 4 3 2 3 4 7 7 17 20 13 14 6 4 2 4 8 5 4 4 4 3 5 4 4 8 9 8 12 8 5 9 6 5 4 8 6
Wind_Direction
345 344 339 344 346 336 335 335 336 332 325 320 318 318 317 315 316 320 318 304 303 296 289 287 282 282 289 222 237 340 344 275 195 191 197 175 178 176 190 184 154 175 165 200 218 142 171
345 346 346 345 344 336 336 340 337 333 328 324 325 324 316 318 313 312 311 310 306 299 292 277 273 291 247 230 205 243 341 331 184 184 195 172 180 157 172 184 181 192 187 172 232 247 237
346 348 346 346 341 338 336 341 338 333 329 329 329 326 318 314 310 311 317 318 309 305 295 283 280 252 238 250 315 156 23 327 181 187 180 172 156 166 138 162 170 127 179 235 244 220 244
346 347 349 345 342 344 339 339 340 339 335 329 327 326 315 312 314 314 313 313 308 301 291 272 280 216 252 255 204 353 330 336 176 189 174 170 143 125 142 121 112 144 114 181 231 209 222
346 347 349 347 342 340 342 339 347 338 329 328 328 322 315 318 316 317 313 297 302 301 287 260 175 196 236 350 196 162 231 220 171 170 160 152 151 144 126 136 121 188 200 205 288 197 160
349 350 351 346 345 346 342 346 345 332 333 336 329 320 305 298 300 310 314 307 308 337 152 104 353 203 239 219 167 106 171 183 163 153 162 170 158 167 155 169 191 174 167 188 210 176 201
349 352 351 347 350 345 341 348 341 335 337 340 338 332 324 282 269 297 336 0 20 62 51 161 228 254 118 112 60 174 118 174 163 156 168 175 171 195 183 164 157 155 161 166 197 128 262
350 350 350 349 349 350 343 347 340 340 342 344 344 343 333 324 226 330 92 93 195 184 103 21 285 294 289 302 145 170 137 160 169 155 129 161 206 181 167 159 143 150 157 182 99 55 322
349 350 349 350 349 348 347 346 343 345 345 352 352 354 354 14 113 70 137 264 195 142 74 35 77 285 283 304 85 197 142 190 112 128 108 173 165 157 169 167 154 147 165 172 152 6 71
350 349 352 352 349 349 346 346 346 346 351 358 2 2 13 90 73 114 25 314 120 88 89 15 60 352 256 110 99 333 299 65 99 151 128 135 79 157 163 186 180 167 149 125 119 85 272
350 347 352 351 351 346 349 348 350 349 355 359 6 3 14 40 63 37 346 111 99 8 86 305 290 317 162 68 143 17 24 40 88 85 145 30 149 132 149 167 128 148 127 119 103 96 341
351 347 353 353 347 352 350 352 348 349 354 353 3 8 12 29 47 349 24 34 66 57 59 231 37 36 96 111 65 69 39 44 48 58 57 68 62 81 91 77 109 131 91 68 66 94 258
349 348 352 353 351 352 353 351 347 348 350 348 351 4 35 53 89 320 328 348 3 63 298 23 54 105 97 134 99 73 347 96 123 122 99 50 20 83 136 87 93 178 174 117 159 145 226
348 348 352 352 353 351 354 353 349 349 345 339 330 5 3 129 171 318 338 341 54 4 62 249 86 101 95 45 68 63 39 84 50 101 122 121 120 90 76 121 169 147 227 194 187 175 220
347 348 352 353 355 352 351 354 351 348 344 336 325 17 295 231 257 90 330 53 79 185 161 128 82 74 70 41 99 90 65 68 102 113 117 131 90 55 45 103 136 173 193 121 103 61 275
344 346 352 355 355 354 350 354 354 350 345 344 336 33 276 321 353 127 103 93 79 236 109 74 92 135 134 111 105 105 146 223 121 180 185 134 108 45 139 82 43 114 140 138 74 201 223
342 343 351 356 356 355 353 352 355 354 346 345 7 28 246 332 142 53 44 41 30 329 342 90 146 113 137 142 142 134 107 164 154 103 84 113 97 104 141 196 169 136 174 73 108 111 200
342 342 349 356 357 355 356 353 355 357 351 34 354 31 337 22 43 63 21 341 330 336 353 86 99 101 138 153 110 118 153 200 163 143 106 86 109 127 153 142 231 177 186 166 181 205 150
342 340 346 353 357 358 357 355 356 358 4 331 2 304 342 21 81 40 341 339 334 19 25 44 101 99 135 133 128 131 132 2 164 114 150 168 100 118 134 304 301 203 192 154 112 106 203
340 341 342 352 354 356 359 356 356 358 1 43 7 47 346 50 42 68 34 359 27 9 40 49 91 100 108 81 44 142 121 7 196 87 110 112 110 154 183 150 141 190 192 181 165 184 194
334 338 338 349 356 356 0 359 359 359 360 56 27 70 147 9 14 352 305 72 6 3 13 28 64 105 131 113 98 133 125 116 70 146 80 98 123 150 219 192 186 208 198 197 209 200 210
328 338 339 343 356 356 1 3 4 3 359 65 32 22 347 267 301 330 342 360 56 81 3 357 149 143 118 147 185 187 156 159 173 156 126 55 131 129 246 124 224 246 234 213 220 228 245
325 334 337 336 353 357 358 6 8 14 18 42 348 337 350 308 343 122 342 317 6 266 109 96 155 107 74 329 196 197 175 150 165 153 140 147 142 155 232 304 285 269 236 211 200 205 216
312 326 337 336 348 356 354 359 10 20 33 76 3 303 335 285 333 209 322 323 325 336 148 34 79 107 137 107 98 85 78 92 113 119 142 140 139 145 232 4 234 252 188 209 203 215 217
298 318 330 337 337 342 348 350 1 11 31 44 10 359 347 291 303 306 340 295 299 349 60 79 35 122 143 95 85 79 98 116 80 83 157 159 137 134 212 241 297 1 166 141 167 236 226
291 313 326 333 326 339 334 339 346 353 20 52 21 334 332 315 277 314 311 313 268 205 147 98 47 85 91 102 113 188 198 191 177 138 42 111 130 158 164 244 234 223 130 155 118 208 334
271 291 304 311 316 315 311 317 326 341 12 88 83 42 338 281 286 269 256 281 295 262 204 169 170 158 37 145 173 198 219 185 173 180 180 150 166 201 203 257 280 242 158 156 176 167 286
265 276 293 304 309 313 314 307 308 318 342 180 275 185 91 271 275 262 298 263 306 236 209 165 132 184 136 184 189 195 198 201 174 190 181 185 180 191 180 220 259 174 136 179 210 281 266
264 264 294 305 303 313 310 314 296 299 288 177 256 200 152 215 261 234 254 251 247 259 297 282 261 188 178 156 202 145 171 173 178 209 173 207 189 183 199 214 255 191 148 230 229 279 289